Location: Veyrier
(46.1830°N, 6.2000°E)
Time: 15:43:20
(UTC+02:00)

Daily predictions for brighter satellites

Satellite Brightness Start Highest point End
(mag) Time Altitude Azimuth Time Altitude Azimuth Time Altitude Azimuth
ERS-1 Rocket 3.1 21:39:59 10° SSE 21:45:00 80° WSW 21:50:03 10° NNW
Milstar 3 Cent rocket 4.3 21:45:24 10° SW 21:48:35 13° SSW 21:51:13 10° S
SL-24 R/B - RUBIN 2 4.3 21:44:01 10° SSW 21:49:22 61° ESE 21:55:26 10° NE
SL-8 R/B 3.7 21:44:34 10° WSW 21:49:22 73° SSE 21:54:13 10° ENE
USA 186 4.0 21:49:52 10° SSW 21:52:12 21° W 21:54:27 10° NW
Cosmos 2369 Rocket 3.9 21:49:05 10° N 21:53:21 21° NE 21:57:34 10° E
Cosmos 2034 Rocket 4.2 21:48:47 10° N 21:55:05 58° ENE 22:01:19 10° SSE
Cosmos 2219 Rocket 3.5 21:50:54 10° SW 21:56:18 46° WNW 22:01:44 10° NNE
YAOGAN 6 3.8 21:55:17 10° SE 21:58:31 29° ENE 22:01:49 10° N
SL-16 R/B 2.2 21:54:16 10° SSW 21:59:51 66° ESE 22:05:28 10° NNE
Cosmos 1939 Rocket 3.0 21:57:15 10° SSE 22:01:25 84° WSW 22:05:36 10° NNW
Cosmos 1726 Rocket 4.1 21:57:22 10° NNW 22:01:47 61° W 22:06:09 10° S
Timation 1 Rocket 4.5 22:00:54 10° NNW 22:06:56 68° ENE 22:12:42 11° SE
ARGOS 4.0 22:02:16 10° SE 22:07:13 38° ENE 22:12:12 10° N
Meteor 1-23 Rocket 4.2 22:01:50 10° S 22:07:28 82° E 22:13:13 10° NNE
Cosmos 2058 Rocket 3.4 22:05:11 10° NNW 22:09:34 66° W 22:13:52 10° S
H-2A R/B 3.6 22:08:21 10° ESE 22:11:58 21° ENE 22:15:38 10° NNE
deb Chang Zheng 4 4.3 22:11:54 10° N 22:16:16 59° WNW 22:20:34 10° SSW
Lacrosse 5 rocket 1.2 22:14:05 10° SW 22:17:59 88° SE 22:22:07 10° NE
GRACE-1 4.0 22:15:22 10° N 22:18:14 60° E 22:20:49 12° S
GRACE-2 4.0 22:15:48 10° N 22:18:41 60° E 22:21:15 12° S
SPOT 1/Viking Rocket 3.8 22:15:11 11° SSE 22:20:01 57° ENE 22:25:05 10° N
Cosmos 494 Rocket 3.9 22:15:45 10° SSW 22:20:52 88° ESE 22:26:01 10° NNE
Cosmos 1602 Rocket 3.7 22:17:46 10° S 22:22:10 61° E 22:26:36 10° NNE
PSLV R/B 3.7 22:20:45 10° S 22:23:47 58° W 22:26:52 10° NNW
Cosmos 1666 3.0 22:21:02 10° NNW 22:24:55 67° W 22:28:47 10° S
Okean 2 3.9 22:22:19 10° SSW 22:26:28 63° W 22:30:38 10° N
Cosmos 1603 4.0 22:23:15 10° S 22:28:32 44° ESE 22:33:51 10° NE
Cosmos 1812 Rocket 3.6 22:25:33 10° N 22:29:54 64° E 22:33:30 15° SSE
MetOp-B 4.2 22:24:41 10° SSE 22:30:02 88° WSW 22:35:27 10° NNW
Meteor 2-4 Rocket 4.3 22:27:23 10° SSW 22:33:11 64° WNW 22:39:06 10° N
USA 245 4.3 22:27:44 12° SSE 22:33:36 76° ENE 22:38:58 10° N
Aureole 2 Rocket 2.5 22:29:41 10° SSW 22:33:40 81° ESE 22:37:17 10° NNE
Cosmos 1461 2.9 22:30:17 10° NW 22:34:39 84° SW 22:37:40 18° SSE
Abrixas rocket 3.0 22:31:46 10° W 22:35:01 40° SSW 22:36:57 20° SSE
CZ-4 R/B 4.2 22:32:23 10° NNE 22:37:13 49° E 22:41:39 12° S
BREEZE-M DEB (TANK) 4.2 22:36:50 10° W 22:38:07 13° SW 22:39:11 11° SSW
Cosmos 2333 Rocket 4.2 22:33:32 10° WSW 22:38:32 32° NW 22:43:34 10° NNE
Meteor 2-12 Rocket 4.5 22:35:17 10° N 22:41:25 71° E 22:46:27 15° SSE
SPOT 5 3.6 22:41:06 10° S 22:45:21 43° W 22:49:31 10° NNW
H-2A R/B 4.3 22:42:45 10° SW 22:46:00 21° W 22:49:19 10° NW
Cosmos 1346 Rocket 4.1 22:48:00 20° ESE 22:49:10 23° E 22:52:16 10° NE
Cosmos 1943 4.0 22:52:33 19° SSE 22:55:35 32° ESE 23:00:33 10° NE
Cosmos 1515 3.8 22:53:46 21° S 22:56:12 60° E 23:00:01 10° NNE
Cosmos 1626 Rocket 4.1 22:51:54 10° SSW 22:56:18 61° W 23:00:42 10° N
CZ-4B R/B 3.6 22:52:57 10° NNE 22:57:58 79° WNW 23:03:07 10° SSW
SeaSat 1 4.0 22:54:10 10° SSW 22:58:24 28° WSW 23:02:39 10° NW
Tsikada Rocket 4.3 22:54:43 10° SSW 23:01:08 74° W 23:07:33 10° N
Lacrosse 5 3.9 22:56:52 10° W 23:01:21 31° NNW 23:05:50 10° NE
ATLAS 3B R/B 3.6 22:56:52 17° SSE 23:01:41 32° ESE 23:08:08 10° NE
Landsat 7 3.9 23:00:12 23° SSE 23:03:09 70° ENE 23:07:54 10° N
USA 234 4.0 23:05:50 18° SSE 23:10:18 41° SW 23:16:26 10° WNW
BREEZE M DEB (TANK) 2.7 23:09:03 10° W 23:10:25 22° SW 23:10:25 22° SW
Atlas Centaur 2 4.0 23:04:56 10° SSW 23:10:58 22° SSE 23:12:30 21° SSE
Cosmos 1943 Rocket 3.5 23:06:23 10° N 23:11:15 30° NE 23:14:57 15° ESE
COSMOS 2455 2.8 23:05:51 10° SSW 23:11:45 61° ESE 23:17:41 10° NE
Cosmos 1953 Rocket 3.9 23:09:53 27° SSE 23:11:55 49° E 23:16:12 10° NNE
ATLAS CENTAUR R/B 4.1 23:07:44 10° W 23:12:05 29° NW 23:16:28 10° NNE
DELTA 2 DEB (DPAF) 4.2 23:09:24 23° S 23:12:08 80° WSW 23:16:40 10° NNW
Terra 1.8 23:16:28 28° SSE 23:18:57 70° ENE 23:23:42 10° N
USA 81 4.2 23:17:12 10° N 23:22:29 74° W 23:26:01 21° S
Cosmos 407 Rocket 4.0 23:24:37 29° SSE 23:26:40 42° ESE 23:31:34 10° NE
Cosmos 1766 3.5 23:22:59 10° N 23:26:56 55° ENE 23:28:12 37° SE
SL-08 RB Rocket 4.5 23:28:46 21° SSW 23:31:34 46° W 23:35:57 10° NNW
SL-8 R/B 4.0 23:27:14 10° W 23:32:04 67° N 23:36:54 10° E
SL-24 R/B 4.4 23:27:22 10° N 23:32:13 70° E 23:34:39 30° S
CZ-4C R/B 4.2 23:30:27 23° SSW 23:32:48 47° W 23:36:50 10° NNW
Cosmos 2369 Rocket 2.2 23:32:23 10° NNW 23:38:05 81° WSW 23:40:50 32° SSE
Cosmos-2242 3.4 23:35:32 10° N 23:39:51 51° ENE 23:41:11 37° SE
IGS 5A 3.5 23:40:06 38° S 23:41:38 76° WSW 23:45:49 10° NNW
Cosmos 1634 Rocket 4.4 23:38:01 10° NNW 23:44:03 58° W 23:48:08 21° SSW
SL-16 R/B 4.5 23:39:54 10° WSW 23:44:28 25° NW 23:49:04 10° N
Meteor 1-22 Rocket 4.4 23:39:52 10° NNW 23:45:20 69° W 23:48:22 28° S
Cosmos 1758 Rocket 3.5 23:44:43 35° S 23:46:34 89° W 23:50:58 10° N
ARGOS 4.4 23:43:40 15° SSW 23:47:29 34° W 23:52:24 10° NNW
SL-27 R/B 4.5 23:48:48 16° ENE 23:48:48 16° ENE 23:50:07 10° NE
H-2A R/B 2.3 23:48:36 29° SSW 23:50:58 57° W 23:55:56 10° NNW
CARTOSAT-1 4.1 23:49:15 31° SSW 23:51:00 52° W 23:55:15 10° NNW
ALOS 2 4.4 23:51:36 17° E 23:53:12 20° ENE 23:56:24 10° NNE
Cosmos 1953 2.5 23:49:18 10° N 23:53:14 56° ENE 23:53:59 47° ESE
